{"data":{"norad_id":63311,"epoch":"2026-05-24T10:07:24.846240Z","epoch_age_seconds":128577,"freshness":"FRESH","line1":"1 63311U 25057E   26144.42181535  .00258936  00000+0  19488-2 0  9993","line2":"2 63311  43.0003 168.4602 0003352 266.2170  93.8315 15.70965135 69084","mean_motion":15.70965135,"eccentricity":0.0003352,"inclination_deg":43.0003,"raan_deg":168.4602,"arg_perigee_deg":266.217,"mean_anomaly_deg":93.8315,"bstar":0.0019488,"rev_number":6908,"period_min":91.663396463601,"perigee_km":353.88009727282,"apogee_km":358.39475484806,"semimajor_km":6734.2744260604,"source":"CELESTRAK","updated_at":"2026-05-25T13:38:19.955905Z"}}